FYT41AS LEPA-LIRF

Flight info

Callsign FYT41AS
Flight time N/A
Altitude 38000
Route MORSS DCT BAVON DCT ORKUM DCT ELSAG DCT ALG DCT ROMPO DCT RUXOP DCT BATOX DCT TINTO L5 VALMA
Aircraft A320/M-SDFGHIRWY/S

Departure

Time 2026-05-07 16:34
Airport Palma de Mallorca Airport (LEPA)

Arrival

Time N/A
Airport Rome–Fiumicino Leonardo da Vinci International Airport (LIRF)
Time Latitude Longitude Altitude Speed Heading
2026-05-07 15:57 39.54738 2.73365 38 ft 0 kts 239°
2026-05-07 16:20 39.54739 2.73367 37 ft 1 kts 239°
2026-05-07 16:21 39.54745 2.73384 37 ft 2 kts 256°
2026-05-07 16:21 39.54748 2.73403 37 ft 2 kts 267°
2026-05-07 16:21 39.54747 2.73422 37 ft 2 kts 281°
2026-05-07 16:21 39.54743 2.73440 37 ft 2 kts 293°
2026-05-07 16:22 39.54736 2.73457 37 ft 2 kts 306°
2026-05-07 16:22 39.54726 2.73472 37 ft 2 kts 319°
2026-05-07 16:22 39.54714 2.73483 37 ft 2 kts 332°
2026-05-07 16:22 39.54704 2.73489 37 ft 0 kts 329°
2026-05-07 16:23 39.54704 2.73490 37 ft 0 kts 328°
2026-05-07 16:27 39.54720 2.73478 36 ft 3 kts 332°
2026-05-07 16:27 39.54748 2.73480 36 ft 5 kts 30°
2026-05-07 16:27 39.54753 2.73529 36 ft 7 kts 124°
2026-05-07 16:27 39.54710 2.73577 36 ft 9 kts 144°
2026-05-07 16:28 39.54647 2.73617 36 ft 10 kts 164°
2026-05-07 16:28 39.54570 2.73629 36 ft 11 kts 199°
2026-05-07 16:28 39.54515 2.73550 36 ft 11 kts 240°
2026-05-07 16:28 39.54480 2.73472 36 ft 9 kts 238°
2026-05-07 16:29 39.54444 2.73397 36 ft 10 kts 239°
2026-05-07 16:29 39.54406 2.73316 36 ft 11 kts 239°
2026-05-07 16:29 39.54363 2.73226 36 ft 12 kts 238°
2026-05-07 16:29 39.54317 2.73128 36 ft 13 kts 238°
2026-05-07 16:30 39.54266 2.73023 36 ft 13 kts 238°
2026-05-07 16:30 39.54239 2.72963 36 ft 7 kts 240°
2026-05-07 16:30 39.54201 2.72922 36 ft 6 kts 183°
2026-05-07 16:30 39.54163 2.72958 36 ft 7 kts 118°
2026-05-07 16:31 39.54158 2.72981 36 ft 0 kts 92°
2026-05-07 16:32 39.54158 2.73000 36 ft 4 kts 92°
2026-05-07 16:32 39.54155 2.73066 36 ft 9 kts 97°
2026-05-07 16:32 39.54137 2.73151 36 ft 10 kts 108°
2026-05-07 16:33 39.54158 2.73238 36 ft 13 kts 55°
2026-05-07 16:33 39.54321 2.73585 36 ft 82 kts 58°
2026-05-07 16:33 39.54739 2.74463 37 ft 144 kts 59°
2026-05-07 16:33 39.55336 2.75691 382 ft 166 kts 60°
2026-05-07 16:34 39.55948 2.76913 1155 ft 163 kts 59°
2026-05-07 16:34 39.56573 2.78141 1701 ft 171 kts 60°
2026-05-07 16:34 39.57264 2.79473 2089 ft 187 kts 59°
2026-05-07 16:34 39.58026 2.80946 2512 ft 202 kts 59°
2026-05-07 16:35 39.58812 2.82479 3031 ft 213 kts 59°
2026-05-07 16:35 39.59621 2.84066 3831 ft 212 kts 59°
2026-05-07 16:35 39.60413 2.85631 4657 ft 210 kts 59°
2026-05-07 16:35 39.61212 2.87226 5383 ft 213 kts 59°
2026-05-07 16:36 39.62016 2.88839 6086 ft 217 kts 59°
2026-05-07 16:36 39.62823 2.90487 6798 ft 221 kts 60°
2026-05-07 16:36 39.63572 2.92283 7293 ft 235 kts 63°
2026-05-07 16:36 39.64367 2.94222 7730 ft 253 kts 62°
2026-05-07 16:37 39.65220 2.96294 8214 ft 270 kts 62°
2026-05-07 16:37 39.66119 2.98474 8910 ft 277 kts 62°
2026-05-07 16:37 39.67036 3.00687 9699 ft 281 kts 61°
2026-05-07 16:37 39.67879 3.02954 10384 ft 288 kts 71°
2026-05-07 16:38 39.68367 3.05520 10840 ft 302 kts 79°
2026-05-07 16:38 39.68744 3.08242 11483 ft 309 kts 80°
2026-05-07 16:38 39.69123 3.10981 12229 ft 312 kts 80°
2026-05-07 16:38 39.69526 3.13755 12938 ft 316 kts 80°
2026-05-07 16:39 39.69952 3.16574 13633 ft 319 kts 80°
2026-05-07 16:39 39.70384 3.19357 14274 ft 323 kts 79°
2026-05-07 16:39 39.70838 3.22239 14885 ft 327 kts 80°
2026-05-07 16:39 39.71297 3.25139 15490 ft 332 kts 79°
2026-05-07 16:40 39.71768 3.28093 16079 ft 336 kts 80°
2026-05-07 16:40 39.72238 3.31041 16649 ft 340 kts 80°
2026-05-07 16:40 39.72722 3.34069 17203 ft 345 kts 80°
2026-05-07 16:40 39.73206 3.37109 17755 ft 348 kts 80°
2026-05-07 16:41 39.73700 3.40203 18305 ft 352 kts 80°
2026-05-07 16:41 39.74192 3.43296 18826 ft 356 kts 80°
2026-05-07 16:41 39.74693 3.46450 19343 ft 360 kts 81°
2026-05-07 16:41 39.75198 3.49640 19846 ft 364 kts 80°
2026-05-07 16:42 39.75712 3.52878 20350 ft 368 kts 81°
2026-05-07 16:42 39.76229 3.56151 20832 ft 372 kts 81°
2026-05-07 16:42 39.76749 3.59456 21316 ft 376 kts 81°
2026-05-07 16:42 39.77275 3.62793 21790 ft 380 kts 81°
2026-05-07 16:43 39.77799 3.66133 22258 ft 384 kts 81°
2026-05-07 16:43 39.78334 3.69545 22718 ft 387 kts 81°
2026-05-07 16:43 39.78876 3.73006 23174 ft 391 kts 81°
2026-05-07 16:43 39.79413 3.76440 23619 ft 394 kts 81°
2026-05-07 16:44 39.79959 3.79935 24062 ft 397 kts 81°
2026-05-07 16:44 39.80509 3.83465 24482 ft 401 kts 81°
2026-05-07 16:44 39.81064 3.87039 24903 ft 405 kts 81°
2026-05-07 16:44 39.81617 3.90607 25321 ft 408 kts 82°
2026-05-07 16:45 39.82173 3.94207 25718 ft 411 kts 82°
2026-05-07 16:45 39.82742 3.97901 26135 ft 414 kts 82°
2026-05-07 16:45 39.83301 4.01527 26527 ft 416 kts 82°
2026-05-07 16:45 39.83874 4.05261 26896 ft 420 kts 82°
2026-05-07 16:46 39.84441 4.08960 27258 ft 423 kts 82°
2026-05-07 16:46 39.85016 4.12725 27617 ft 426 kts 82°
2026-05-07 16:46 39.85587 4.16475 27968 ft 429 kts 82°
2026-05-07 16:46 39.86178 4.20325 28312 ft 432 kts 81°
2026-05-07 16:47 39.86881 4.24136 28647 ft 436 kts 78°
2026-05-07 16:47 39.87658 4.27919 28979 ft 439 kts 78°
2026-05-07 16:47 39.88463 4.31763 29307 ft 442 kts 78°
2026-05-07 16:47 39.89273 4.35631 29631 ft 444 kts 78°
2026-05-07 16:48 39.90080 4.39503 29943 ft 447 kts 78°
2026-05-07 16:48 39.90888 4.43392 30261 ft 449 kts 78°
2026-05-07 16:48 39.91702 4.47330 30551 ft 452 kts 78°
2026-05-07 16:48 39.92520 4.51301 30815 ft 455 kts 78°
2026-05-07 16:49 39.93328 4.55229 31095 ft 457 kts 78°
2026-05-07 16:49 39.94153 4.59249 31354 ft 460 kts 78°
2026-05-07 16:49 39.94976 4.63270 31604 ft 462 kts 78°
2026-05-07 16:49 39.95807 4.67313 31865 ft 465 kts 78°
2026-05-07 16:50 39.96708 4.71377 32116 ft 467 kts 77°
2026-05-07 16:50 39.97643 4.75428 32364 ft 470 kts 77°
2026-05-07 16:50 39.98576 4.79448 32614 ft 471 kts 77°
2026-05-07 16:50 39.99533 4.83590 32835 ft 474 kts 77°
2026-05-07 16:51 40.00476 4.87696 33036 ft 476 kts 77°
2026-05-07 16:51 40.01414 4.91804 33266 ft 478 kts 77°
2026-05-07 16:51 40.02354 4.95945 33476 ft 480 kts 77°
2026-05-07 16:51 40.03308 5.00149 33687 ft 481 kts 77°
2026-05-07 16:52 40.04252 5.04317 33931 ft 482 kts 77°
2026-05-07 16:52 40.05194 5.08489 34196 ft 482 kts 77°
2026-05-07 16:52 40.06139 5.12681 34433 ft 483 kts 77°
2026-05-07 16:52 40.07085 5.16883 34632 ft 484 kts 77°
2026-05-07 16:53 40.08021 5.21054 34836 ft 484 kts 77°
2026-05-07 16:53 40.08958 5.25245 35022 ft 484 kts 77°
2026-05-07 16:53 40.09896 5.29444 35195 ft 485 kts 77°
2026-05-07 16:53 40.10834 5.33654 35361 ft 485 kts 77°
2026-05-07 16:54 40.11782 5.37906 35526 ft 485 kts 77°
2026-05-07 16:54 40.12709 5.42079 35685 ft 485 kts 77°
2026-05-07 16:54 40.13656 5.46343 35838 ft 485 kts 77°
2026-05-07 16:54 40.14589 5.50552 36039 ft 484 kts 77°
2026-05-07 16:55 40.15507 5.54709 36186 ft 484 kts 77°
2026-05-07 16:55 40.17375 5.63191 36401 ft 487 kts 77°
2026-05-07 16:55 40.18301 5.67403 36524 ft 488 kts 78°
2026-05-07 16:56 40.19241 5.71689 36656 ft 489 kts 78°
2026-05-07 16:56 40.20177 5.75966 36785 ft 490 kts 78°
2026-05-07 16:56 40.22037 5.84494 37042 ft 491 kts 78°
2026-05-07 16:57 40.22971 5.88780 37174 ft 491 kts 78°
2026-05-07 16:57 40.23893 5.93029 37306 ft 491 kts 78°
2026-05-07 16:57 40.24822 5.97315 37434 ft 492 kts 78°
2026-05-07 16:57 40.25758 6.01644 37568 ft 492 kts 78°
2026-05-07 16:58 40.26682 6.05923 37692 ft 492 kts 78°
2026-05-07 16:58 40.27607 6.10217 37821 ft 492 kts 78°
2026-05-07 16:58 40.28528 6.14504 37937 ft 493 kts 78°
2026-05-07 16:58 40.29462 6.18851 37953 ft 496 kts 78°
2026-05-07 16:59 40.31325 6.27547 37960 ft 502 kts 78°
2026-05-07 16:59 40.33190 6.36302 37955 ft 504 kts 77°
2026-05-07 17:00 40.35074 6.45164 37950 ft 504 kts 77°
2026-05-07 17:00 40.36945 6.54019 37945 ft 506 kts 77°
2026-05-07 17:01 40.38808 6.62866 37940 ft 506 kts 78°
2026-05-07 17:01 40.40663 6.71698 37949 ft 505 kts 78°
2026-05-07 17:02 40.42523 6.80623 37953 ft 506 kts 78°
2026-05-07 17:02 40.44368 6.89499 37954 ft 506 kts 78°
2026-05-07 17:03 40.46214 6.98413 37955 ft 506 kts 78°
2026-05-07 17:03 40.48037 7.07243 37955 ft 506 kts 78°
2026-05-07 17:04 40.49870 7.16179 37957 ft 507 kts 78°
2026-05-07 17:04 40.51686 7.25074 37957 ft 508 kts 78°
2026-05-07 17:05 40.53502 7.33999 37955 ft 507 kts 78°
2026-05-07 17:05 40.55318 7.42954 37951 ft 507 kts 78°
2026-05-07 17:06 40.56731 7.51946 37950 ft 503 kts 86°
2026-05-07 17:06 40.57540 7.61041 37946 ft 503 kts 88°
2026-05-07 17:07 40.58295 7.70156 37946 ft 503 kts 88°
2026-05-07 17:07 40.59057 7.79193 37942 ft 502 kts 88°
2026-05-07 17:08 40.59832 7.88340 37942 ft 503 kts 88°
2026-05-07 17:08 40.60590 7.97400 37934 ft 503 kts 88°
2026-05-07 17:09 40.61348 8.06517 37935 ft 504 kts 88°
2026-05-07 17:09 40.62115 8.15677 37941 ft 505 kts 86°
2026-05-07 17:10 40.63421 8.24740 37943 ft 510 kts 78°
2026-05-07 17:10 40.65650 8.33642 37948 ft 515 kts 70°
2026-05-07 17:11 40.68402 8.42319 37949 ft 515 kts 69°
2026-05-07 17:11 40.71180 8.50999 37950 ft 516 kts 69°
2026-05-07 17:12 40.73918 8.59679 37950 ft 516 kts 69°
2026-05-07 17:12 40.76655 8.68412 37950 ft 516 kts 69°
2026-05-07 17:13 40.79373 8.77130 37955 ft 518 kts 69°
2026-05-07 17:13 40.82105 8.85933 37952 ft 520 kts 69°
2026-05-07 17:14 40.84826 8.94710 37951 ft 518 kts 69°
2026-05-07 17:14 40.87539 9.03507 37949 ft 520 kts 69°
2026-05-07 17:15 40.90258 9.12342 37957 ft 522 kts 70°
2026-05-07 17:15 40.92959 9.21166 37963 ft 521 kts 69°
2026-05-07 17:16 40.95664 9.30026 37964 ft 522 kts 69°
2026-05-07 17:16 40.98371 9.38912 37965 ft 521 kts 69°
2026-05-07 17:17 41.01070 9.47792 37965 ft 520 kts 69°
2026-05-07 17:17 41.03753 9.56671 37970 ft 522 kts 69°
2026-05-07 17:18 41.06426 9.65555 37967 ft 521 kts 70°
2026-05-07 17:18 41.09105 9.74452 37967 ft 521 kts 70°
2026-05-07 17:19 41.11737 9.83304 37967 ft 521 kts 70°
2026-05-07 17:19 41.14369 9.92247 37964 ft 521 kts 70°
2026-05-07 17:20 41.17004 10.01234 37204 ft 525 kts 70°
2026-05-07 17:20 41.18321 10.05680 36437 ft 525 kts 69°
2026-05-07 17:20 41.19654 10.10169 35759 ft 526 kts 70°
2026-05-07 17:21 41.21000 10.14694 35066 ft 527 kts 70°
2026-05-07 17:21 41.22343 10.19225 34313 ft 530 kts 70°
2026-05-07 17:21 41.23684 10.23759 33460 ft 530 kts 70°
2026-05-07 17:21 41.25008 10.28252 32688 ft 529 kts 70°
2026-05-07 17:22 41.26345 10.32797 32226 ft 520 kts 69°
2026-05-07 17:22 41.27641 10.37210 31766 ft 512 kts 69°
2026-05-07 17:22 41.28919 10.41565 31316 ft 504 kts 69°
2026-05-07 17:22 41.30177 10.45856 30849 ft 497 kts 69°
2026-05-07 17:23 41.31406 10.50055 30391 ft 491 kts 69°
2026-05-07 17:23 41.32635 10.54252 29940 ft 484 kts 69°
2026-05-07 17:23 41.33833 10.58364 29484 ft 478 kts 69°
2026-05-07 17:23 41.35022 10.62449 29005 ft 473 kts 68°
2026-05-07 17:24 41.36211 10.66535 28534 ft 468 kts 69°
2026-05-07 17:24 41.37371 10.70533 28060 ft 462 kts 69°
2026-05-07 17:24 41.38511 10.74463 27597 ft 457 kts 69°
2026-05-07 17:24 41.39652 10.78405 27115 ft 452 kts 69°
2026-05-07 17:25 41.40757 10.82243 26642 ft 448 kts 69°
2026-05-07 17:25 41.41868 10.86092 26177 ft 443 kts 69°
2026-05-07 17:25 41.42958 10.89873 25717 ft 438 kts 69°
2026-05-07 17:25 41.44052 10.93676 25243 ft 434 kts 68°
2026-05-07 17:26 41.45106 10.97354 24776 ft 430 kts 68°
2026-05-07 17:26 41.46175 11.01082 24334 ft 426 kts 68°
2026-05-07 17:26 41.47216 11.04720 23976 ft 424 kts 68°
2026-05-07 17:26 41.48268 11.08390 23644 ft 421 kts 68°
2026-05-07 17:27 41.49307 11.11989 23317 ft 419 kts 68°
2026-05-07 17:27 41.50340 11.15584 22996 ft 416 kts 68°
2026-05-07 17:27 41.50994 11.17858 22796 ft 415 kts 68°